www.pogodaiklimat.ru
ПОГОДА в Покипси
Время
(UTC), дата
22:30 18.11
22:53 18.11
23:36 18.11
23:53 18.11
00:53 18.11
01:15 18.11
01:24 18.11
01:53 18.11
02:00 18.11
02:29 18.11
02:35 18.11
02:53 18.11
03:03 18.11
03:09 18.11
03:17 18.11
03:46 18.11
03:53 18.11
04:09 19.11
04:21 19.11
04:50 19.11
04:53 19.11
05:53 19.11
06:10 19.11
06:30 19.11
06:53 19.11
07:04 19.11
07:25 19.11
07:45 19.11
07:53 19.11
08:05 19.11
08:17 19.11
08:31 19.11
08:40 19.11
08:53 19.11
09:11 19.11
09:37 19.11
09:53 19.11
10:02 19.11
10:14 19.11
10:25 19.11
10:33 19.11
10:53 19.11
11:53 19.11
12:53 19.11
13:53 19.11
14:00 19.11
14:53 19.11
15:53 19.11
Ветер
(напр.,м/с)
Видим. Явления Облачность Т
(С)
Тd
(С)
f
(%)
Тe
(С)
Тes
(С)
Комфортность P
(гПа)
Po
(гПа)
Тmin
(С)
Tmax
(С)
R
(мм)
R24
(мм)
S
(см)
С 2 10 км дымка 10/10 180 м +2.8 +1.7 92 -1 -1 1001.0
С 3 6 км дымка 10/10 270 м +2.8 +1.1 89 -2 -2 1006.6 1000.7 +2.8 +4.4
С 3 4 км неопределенные осадки, дымка 10/10 210 м +2.8 +1.1 89 -1 -1 1000.7
С 3 3 км неопределенные осадки, дымка 10/10 180 м +2.8 +1.7 92 -1 -1 1006.2 1000.4
нст 2 3 км слабый дождь, дымка 10/10 210 м +2.8 +1.1 89 -1 -1 1006.0 1000.0
С 1 5 км слабый дождь, дымка 10/10 210 м +2.8 +1.1 89 0 0 1000.0
0 4 км неопределенные осадки, дымка 10/10 210 м +2.8 +1.7 92 +2 +2 1000.0
ЮЗ 2 3 км слабый дождь, дымка 10/10 150 м +2.8 +1.7 92 -1 -1 1006.1 1000.4
ЮЗ 2 3 км слабый дождь, дымка 10/10 150 м +2.8 +1.7 92 -1 -1 1000.4
З 1 3 км слабый дождь, дымка 10/10 180 м +2.8 +1.7 92 0 0 1000.4
СЗ 1 3 км слабый дождь, дымка 10/10 180 м +2.8 +1.7 92 0 0 1000.4
СВ 2 4 км неопределенные осадки, дымка 10/10 120 м +2.8 +1.7 92 -1 -1 1005.9 1000.0
С 1 5 км слабый дождь, дымка 10/10 120 м +2.8 +1.7 92 0 0 1000.0
СВ 1 4 км слабый дождь, дымка 10/10 120 м +2.8 +1.7 92 0 0 1000.0
С 1 3 км дождь, дымка 10/10 150 м +2.8 +1.7 92 0 0 1000.0
С 2 5 км дождь, дымка 10/10 150 м +2.8 +1.7 92 -1 -1 1000.4
С 1 6 км дождь, дымка 10/10 240 м +2.8 +1.1 89 0 0 1006.1 1000.4
С 2 6 км дождь, дымка 10/10 300 м +2.2 +1.1 92 -2 -2 1000.0
С 2 8 км дождь, дымка 10/10 270 м +2.2 +1.1 92 -2 -2 1000.0
СВ 1 10 км слабый дождь, дымка 10/10 270 м +2.0 +1.0 93 -1 -1 999.7
СВ 1 8 км слабый дождь, дымка 10/10 270 м +2.2 +1.1 92 -1 -1 1005.3 999.7 +2.2 +2.8
З 1 5 км дождь, дымка 10/10 270 м +2.2 +1.1 92 -1 -1 1005.6 999.7
З 1 8 км слабый дождь, дымка 10/10 270 м +2.2 +1.1 92 -1 -1 1000.0
0 8 км неопределенные осадки, дымка 10/10 300 м +2.2 +1.1 92 +1 +1 1000.0
З 1 6 км слабый дождь, дымка 10/10 300 м +2.2 +1.1 92 -1 -1 1005.9 1000.0
З 3 5 км дождь, дымка 10/10 240 м +2.2 +0.6 89 -2 -2 1000.4
ЮЗ 2 6 км слабый снег, дымка 10/10 240 м +1.7 +0.6 92 -2 -2 1000.7
0 5 км слабый дождь, дымка 10/10 360 м +1.1 +0.6 96 -0 -0 1000.7
0 6 км слабый дождь, дымка 10/10 180 м +1.1 +0.6 96 -0 -0 1006.5 1000.7
0 5 км дождь, дымка 10/10 180 м +1.1 +0.6 96 -0 -0 1000.7
0 4 км слабый снег, дымка 10/10 180 м +0.6 0.0 96 -1 -1 1000.4
0 5 км слабый снег, дымка 10/10 180 м +0.6 -0.6 92 -1 -1 1000.4
0 4 км слабый снег, дымка 10/10 630 м +0.6 -0.6 92 -1 -1 1000.4
0 3 км слабый снег, дымка 10/10 120 м +0.6 -0.6 92 -1 -1 1006.3 1000.4
0 5 км слабый снег, дымка 10/10 120 м +0.6 -0.6 92 -1 -1 1000.4
0 6 км неопределенные осадки, дымка 10/10 180 м +0.6 -0.6 92 -1 -1 1000.4
0 10 км дымка 10/8 180 м
[средняя]
+0.6 -0.6 92 -1 -1 1006.6 1000.7
0 11 км 10/10 180 м +0.6 -0.6 92 -1 -1 1000.7
0 11 км 10/10 120 м +0.6 -0.6 92 -1 -1 1001.0
0 5 км слабый снег, дымка 10/10 150 м +0.6 -0.6 92 -1 -1 1001.4
0 4 км слабый снег, дымка 10/10 150 м +0.6 -0.6 92 -1 -1 1001.4
0 6 км слабый снег, дымка 10/10 180 м +0.6 -0.6 92 -1 -1 1007.3 1001.4 +0.6 +2.2 30.0
0 6 км дымка 10/10 180 м +0.6 0.0 96 -1 -1 1008.0 1002.0
0 4 км дымка 10/10 480 м +1.1 +0.6 96 -0 -0 1008.0 1002.0
0 4 км дымка 10/10 120 м +2.8 +1.1 89 +2 +2 1008.2 1002.4
0 14 км 10/10 120 м +2.8 +1.1 89 +2 +2 1002.4
0 16 км 10/10 180 м +3.9 +1.7 86 +3 +3 1008.2 1002.4
СВ 2 16 км 10/10 240 м +3.9 +2.2 89 0 0 1008.0 1002.0
Местоположение метеостанции Dutchess County Airport: широта 41.6267 долгота -73.8842 высота над уровнем моря 50 м.
В архиве по умолчанию представлена погода в Покипси за последние 1-2 суток. Обновление информации о фактической погоде в базе происходит ежечасно! Архивные данные за месяц целиком и за предыдущие месяцы Вы можете получить, выбрав интересующий диапазон дат из раскрывающегося списка и нажав кнопку "Ввод!".
Внимание! Архив погоды МЕТАР в базе сайта по станциям, не включенным в климатический монитор, хранится не более 60 дней. Нет смысла пытаться выбрать более раннюю дату.
*Определитесь, кто Вы:
Внимание! Время в таблицах - всемирное. Для получения местного времени необходимо прибавить поправку, которая равна ч.
Смотрите также архив погоды в соседних городах и на ближайших метеорологических станциях:
Партнеры нашего сайта:      
Пояснения к столбцам:
  • Ветер - указаны скорость ветра в м/с - средняя за 10 мин, порывы в срок и между сроками (в фигурных скобках) и направление, откуда дует ветер: С - северный,
  • СВ - северо-восточный, В - восточный, ЮВ - юго-восточный, Ю - южный, ЮЗ - юго-западный, З - западный, СЗ - северо-западный.
  • Видимость - горизонтальная дальность видимости в метрах или километрах. При видимости от 1 до 10 км при отсутствии осадков обычно наблюдается дымка, при ухудшении видимости до 1 км и менее - туман. В сухую погоду видимость может ухудшаться дымом, пылью или мглою.
  • Явления - указаны атмосферные явления, наблюдавшиеся в срок или в последний час перед сроком; фигурными скобками обозначены явления, наблюдавшиеся между сроками (за 1-3 часа до срока); квадратными скобками обозначены град или гололедные отложения с указанием их диаметра в мм.
  • Облачность - указаны через наклонную черту общая и нижняя облачность в баллах и высота нижней границы облаков в метрах; квадратными скобками обозначены формы облаков: Ci - перистые, Cs - перисто-слоистые, Cc - перисто-кучевые, Ac - высококучевые, As - высокослоистые, Sc - слоисто-кучевые, Ns - слоисто-дождевые, Cu - кучевые, Cb - кучево-дождевые. Подробнее классификацию облаков см. в Атласе облаков (PDF).
  • T - Температура воздуха - температура, измеренная на высоте 2 м над землей.
  • Td - Температура точки росы - температура, при понижении до которой содержащийся в воздухе водяной пар достигнет насыщения.
  • f - Относительная влажность воздуха - влажноcть воздуха, измеренная на высоте 2 м над землей.
  • Te - Эффективная температура - температура, которую ощущает одетый по сезону человек в тени. Характеристика душности погоды. При расчете учитывается влияние влажности воздуха и скорости ветра на теплоощущения человека.
  • Tes - Эффективная температура на солнце - температура, которую ощущает человек, с поправкой на солнечный нагрев. Характеристика знойности погоды. Зависит от высоты солнца над горизонтом, облачности и скорости ветра. Ночью, в пасмурную погоду, а также при ветре 12 м/с и более поправка равна нулю.
  • P - Атмосферное давление - приведенное к уровню моря атмосферное давление.
  • Po - Атмосферное давление - измеренное на уровне метеостанции атмосферное давление.
  • Tmin - Минимальная температура - минимум температуры воздуха на высоте 2 м над землей.
  • Tmax - Максимальная температура - максимум температуры воздуха на высоте 2 м над землей.
  • R - Количество осадков - Количество выпавших осадков за период времени, мм. При наведении курсора мыши на число - период времени, за который выпало указанное количество осадков.
  • R24 - Количество осадков - Количество выпавших осадков за 24 часа, мм.
  • S - Снежный покров - Высота снежного покрова, см. При наведении курсора мыши на число - состояние снежного покрова и степень покрытия местности в баллах.